START_TIME,STEP,MOV.,M29,t_acc.,H22,t_acc.,H26,t_acc.,H30,t_acc.
1979-07-28 09:00:31.090 ,0,0,1.,24.0,0.,24.0,0.,24.0,0.,24.0
1979-07-28 09:00:55.090 ,0,1,0.,24.0,0.,24.0,0.,24.0,0.,24.0
1979-07-28 09:01:19.090 ,0,0,0.,24.0,0.,24.0,0.,24.0,0.,24.0
1979-07-28 09:01:43.090 ,1,1,0.,24.0,0.,24.0,0.,24.0,0.,24.0
1979-07-28 09:02:07.090 ,1,0,0.,24.0,0.,24.0,0.,24.0,0.,24.0
1979-07-28 09:02:31.090 ,2,1,0.,24.0,0.,24.0,0.,24.0,0.,24.0
1979-07-28 09:02:55.090 ,2,0,0.,24.0,0.,24.0,0.,24.0,0.,24.0
1979-07-28 09:03:19.090 ,3,1,0.,24.0,0.,24.0,0.,24.0,0.,24.0
1979-07-28 09:03:43.090 ,3,0,0.,24.0,0.,24.0,0.,24.0,0.,24.0
1979-07-28 09:04:07.090 ,4,1,0.,24.0,0.,24.0,0.,24.0,0.,24.0
1979-07-28 09:04:31.090 ,4,0,0.,24.0,0.,24.0,0.,24.0,0.,24.0
1979-07-28 09:04:55.090 ,5,1,0.,24.0,0.,24.0,0.,24.0,0.,24.0
1979-07-28 09:05:19.090 ,5,0,0.,24.0,0.,24.0,0.,24.0,0.,24.0
1979-07-28 09:05:43.090 ,6,1,0.,24.0,0.,24.0,0.,24.0,0.,24.0
1979-07-28 09:06:07.090 ,6,0,0.,24.0,0.,24.0,0.,24.0,0.,24.0
1979-07-28 09:06:31.090 ,7,0,0.,24.0,0.,24.0,0.,24.0,0.,24.0
1979-07-28 09:06:55.090 ,7,0,0.,24.0,0.,24.0,0.,24.0,0.,24.0
1979-07-28 09:07:19.090 ,5,1,0.,24.0,0.,24.0,0.,24.0,0.,24.0
1979-07-28 09:07:43.090 ,1,1,0.,24.0,0.,24.0,0.,24.0,0.,24.0
1979-07-28 09:08:07.090 ,2,1,0.,24.0,0.,24.0,0.,24.0,0.,24.0
1979-07-28 09:08:31.090 ,6,1,0.,24.0,0.,24.0,0.,24.0,0.,24.0
1979-07-28 09:08:55.090 ,5,1,0.,24.0,0.,24.0,0.,24.0,0.,24.0
1979-07-28 09:09:19.090 ,1,1,0.,24.0,0.,24.0,0.,24.0,0.,24.0
1979-07-28 09:09:43.090 ,2,1,0.,24.0,0.,24.0,0.,24.0,0.,24.0
1979-07-28 09:10:07.090 ,6,1,0.,24.0,0.,24.0,0.,24.0,0.,24.0
1979-07-28 09:10:31.090 ,5,1,0.,24.0,0.,24.0,0.,24.0,0.,24.0
1979-07-28 09:10:55.090 ,1,1,0.,24.0,0.,24.0,0.,24.0,0.,24.0
1979-07-28 09:11:19.090 ,2,1,0.,24.0,0.,24.0,0.,24.0,0.,24.0
1979-07-28 09:11:43.090 ,6,1,0.,24.0,0.,24.0,0.,24.0,0.,24.0
1979-07-28 09:12:07.090 ,5,1,0.,24.0,0.,24.0,0.,24.0,0.,24.0
1979-07-28 09:12:31.090 ,1,1,0.,24.0,0.,24.0,0.,24.0,0.,24.0
1979-07-28 09:12:55.090 ,2,1,0.,24.0,0.,24.0,0.,24.0,0.,24.0
1979-07-28 09:13:19.090 ,6,1,0.,24.0,0.,24.0,0.,24.0,0.,24.0
1979-07-28 09:13:43.090 ,5,1,0.,24.0,0.,24.0,0.,24.0,0.,24.0
1979-07-28 09:14:07.090 ,1,1,0.,24.0,0.,24.0,0.,24.0,0.,24.0
1979-07-28 09:14:31.090 ,2,1,0.,24.0,0.,24.0,0.,24.0,0.,24.0
1979-07-28 09:14:55.090 ,6,1,0.,24.0,0.,24.0,0.,24.0,0.,24.0
1979-07-28 09:15:19.090 ,5,1,0.,24.0,0.,24.0,0.,24.0,0.,24.0
1979-07-28 09:15:43.090 ,1,1,0.,24.0,0.,24.0,0.,24.0,0.,24.0
1979-07-28 09:16:07.090 ,2,1,0.,24.0,0.,24.0,0.,24.0,0.,24.0
1979-07-28 09:16:31.090 ,6,1,0.,24.0,0.,24.0,0.,24.0,0.,24.0
1979-07-28 09:16:55.090 ,5,1,0.,24.0,0.,24.0,0.,24.0,0.,24.0
1979-07-28 09:17:19.090 ,1,1,0.,24.0,0.,24.0,0.,24.0,0.,24.0
1979-07-28 09:17:43.090 ,0,0,0.,24.0,0.,24.0,0.,24.0,0.,24.0
1979-07-28 09:18:07.090 ,0,0,0.,24.0,0.,24.0,0.,24.0,0.,24.0
1979-07-28 09:18:31.090 ,5,1,0.,24.0,0.,24.0,0.,24.0,0.,24.0
1979-07-28 09:18:55.090 ,5,0,0.,24.0,0.,24.0,0.,24.0,0.,24.0
1979-07-28 09:19:19.090 ,4,1,0.,24.0,0.,24.0,0.,24.0,0.,24.0
1979-07-28 09:19:43.090 ,4,0,0.,24.0,0.,24.0,0.,24.0,0.,24.0
1979-07-28 09:20:07.090 ,3,1,0.,24.0,0.,24.0,0.,24.0,0.,24.0
1979-07-28 09:20:31.090 ,3,0,0.,24.0,0.,24.0,0.,24.0,0.,24.0
1979-07-28 09:20:55.090 ,2,1,0.,24.0,0.,24.0,0.,24.0,0.,24.0
1979-07-28 09:21:19.090 ,2,0,0.,24.0,0.,24.0,0.,24.0,0.,24.0
1979-07-28 09:21:43.090 ,1,1,0.,24.0,0.,24.0,1.,24.0,0.,24.0
1979-07-28 09:22:07.090 ,1,0,0.,24.0,0.,24.0,0.,24.0,0.,24.0
1979-07-28 09:22:31.090 ,0,1,0.,24.0,0.,24.0,0.,24.0,0.,24.0
1979-07-28 09:22:55.090 ,0,0,0.,24.0,0.,24.0,0.,24.0,0.,24.0
1979-07-28 09:23:19.090 ,0,1,0.,24.0,0.,24.0,0.,24.0,0.,24.0
1979-07-28 09:23:43.090 ,0,0,0.,24.0,0.,24.0,0.,24.0,0.,24.0
1979-07-28 09:24:07.090 ,1,1,0.,24.0,0.,24.0,0.,24.0,0.,24.0
1979-07-28 09:24:31.090 ,1,0,0.,24.0,0.,24.0,0.,24.0,0.,24.0
1979-07-28 09:24:55.090 ,2,1,0.,24.0,0.,24.0,0.,24.0,0.,24.0
1979-07-28 09:25:19.090 ,2,0,0.,24.0,0.,24.0,0.,24.0,0.,24.0
1979-07-28 09:25:43.090 ,3,1,0.,24.0,0.,24.0,0.,24.0,0.,24.0
1979-07-28 09:26:07.090 ,3,0,0.,24.0,0.,24.0,0.,24.0,0.,24.0
1979-07-28 09:26:31.090 ,4,1,0.,24.0,0.,24.0,0.,24.0,0.,24.0
1979-07-28 09:26:55.090 ,4,0,0.,24.0,0.,24.0,0.,24.0,0.,24.0
1979-07-28 09:27:19.090 ,5,1,0.,24.0,0.,24.0,0.,24.0,0.,24.0
1979-07-28 09:27:43.090 ,5,0,0.,24.0,0.,24.0,0.,24.0,0.,24.0
1979-07-28 09:28:07.090 ,6,1,0.,24.0,0.,24.0,0.,24.0,0.,24.0
1979-07-28 09:28:31.090 ,6,0,0.,24.0,0.,24.0,0.,24.0,0.,24.0
1979-07-28 09:28:55.090 ,7,1,0.,24.0,0.,24.0,0.,24.0,0.,24.0
1979-07-28 09:29:19.090 ,7,0,0.,24.0,0.,24.0,0.,24.0,0.,24.0
1979-07-28 09:29:43.090 ,7,1,0.,24.0,0.,24.0,0.,24.0,0.,24.0
1979-07-28 09:30:07.090 ,7,0,0.,24.0,0.,24.0,0.,24.0,0.,24.0
1979-07-28 09:30:31.090 ,6,1,0.,24.0,0.,24.0,0.,24.0,0.,24.0
1979-07-28 09:30:55.090 ,6,0,0.,24.0,0.,24.0,0.,24.0,0.,24.0
1979-07-28 09:31:19.090 ,5,1,0.,24.0,0.,24.0,0.,24.0,0.,24.0
1979-07-28 09:31:43.090 ,5,0,0.,24.0,0.,24.0,0.,24.0,0.,24.0
1979-07-28 09:32:07.090 ,4,1,0.,24.0,0.,24.0,0.,24.0,0.,24.0
1979-07-28 09:32:31.090 ,4,0,0.,24.0,0.,24.0,0.,24.0,0.,24.0
1979-07-28 09:32:55.090 ,3,1,0.,24.0,0.,24.0,0.,24.0,0.,24.0
1979-07-28 09:33:19.090 ,3,0,1.,24.0,0.,24.0,0.,24.0,0.,24.0
1979-07-28 09:33:43.090 ,2,1,0.,24.0,0.,24.0,0.,24.0,0.,24.0
1979-07-28 09:34:07.090 ,2,0,0.,24.0,0.,24.0,0.,24.0,0.,24.0
1979-07-28 09:34:31.090 ,1,1,0.,24.0,0.,24.0,0.,24.0,0.,24.0
1979-07-28 09:34:55.090 ,1,0,0.,24.0,0.,24.0,0.,24.0,0.,24.0
1979-07-28 09:35:19.090 ,0,1,0.,24.0,0.,24.0,0.,24.0,0.,24.0
1979-07-28 09:35:43.090 ,0,0,0.,24.0,0.,24.0,0.,24.0,0.,24.0
1979-07-28 09:36:07.090 ,0,1,0.,24.0,0.,24.0,0.,24.0,0.,24.0
1979-07-28 09:36:31.090 ,0,0,0.,24.0,0.,24.0,0.,24.0,0.,24.0
1979-07-28 09:36:55.090 ,1,1,0.,24.0,0.,24.0,0.,24.0,0.,24.0
1979-07-28 09:37:19.090 ,1,0,0.,24.0,0.,24.0,0.,24.0,0.,24.0
1979-07-28 09:37:43.090 ,2,1,0.,24.0,0.,24.0,0.,24.0,0.,24.0
1979-07-28 09:38:07.090 ,2,0,0.,24.0,0.,24.0,0.,24.0,0.,24.0
1979-07-28 09:38:31.090 ,3,1,0.,24.0,0.,24.0,0.,24.0,0.,24.0
1979-07-28 09:38:55.090 ,3,0,0.,24.0,0.,24.0,0.,24.0,0.,24.0
1979-07-28 09:39:19.090 ,0,0,0.,24.0,0.,24.0,0.,24.0,0.,24.0
1979-07-28 09:39:43.090 ,0,0,0.,24.0,0.,24.0,0.,24.0,0.,24.0
1979-07-28 09:40:07.090 ,5,1,0.,24.0,0.,24.0,0.,24.0,0.,24.0
1979-07-28 09:40:31.090 ,5,0,0.,24.0,0.,24.0,0.,24.0,0.,24.0
1979-07-28 09:40:55.090 ,6,1,0.,24.0,0.,24.0,0.,24.0,0.,24.0
1979-07-28 09:41:19.090 ,6,0,0.,24.0,0.,24.0,0.,24.0,0.,24.0
1979-07-28 09:41:43.090 ,7,1,0.,24.0,0.,24.0,0.,24.0,0.,24.0
1979-07-28 09:42:07.090 ,7,0,0.,24.0,0.,24.0,0.,24.0,0.,24.0
1979-07-28 09:42:31.090 ,7,1,0.,24.0,0.,24.0,0.,24.0,0.,24.0
1979-07-28 09:42:55.090 ,7,0,0.,24.0,0.,24.0,0.,24.0,0.,24.0
1979-07-28 09:43:19.090 ,6,1,0.,24.0,0.,24.0,0.,24.0,0.,24.0
1979-07-28 09:43:43.090 ,6,0,1.,24.0,0.,24.0,0.,24.0,0.,24.0
1979-07-28 09:44:07.090 ,5,1,0.,24.0,0.,24.0,0.,24.0,0.,24.0
1979-07-28 09:44:31.090 ,5,0,0.,24.0,0.,24.0,0.,24.0,0.,24.0
1979-07-28 09:44:55.090 ,4,1,0.,24.0,0.,24.0,0.,24.0,0.,24.0
1979-07-28 09:45:19.090 ,4,0,0.,24.0,0.,24.0,0.,24.0,0.,24.0
1979-07-28 09:45:43.090 ,3,1,0.,24.0,0.,24.0,0.,24.0,0.,24.0
1979-07-28 09:46:07.090 ,3,0,0.,24.0,0.,24.0,0.,24.0,0.,24.0
1979-07-28 09:46:31.090 ,2,1,0.,24.0,0.,24.0,0.,24.0,0.,24.0
1979-07-28 09:46:55.090 ,2,0,0.,24.0,0.,24.0,0.,24.0,0.,24.0
1979-07-28 09:47:19.090 ,1,1,0.,24.0,0.,24.0,0.,24.0,0.,24.0
1979-07-28 09:47:43.090 ,1,0,0.,24.0,0.,24.0,0.,24.0,0.,24.0
1979-07-28 09:48:07.090 ,0,1,0.,24.0,0.,24.0,0.,24.0,0.,24.0
1979-07-28 09:48:31.090 ,0,0,0.,24.0,0.,24.0,0.,24.0,0.,24.0
1979-07-28 09:48:55.090 ,0,1,0.,24.0,0.,24.0,0.,24.0,0.,24.0
1979-07-28 09:49:19.090 ,0,0,0.,24.0,0.,24.0,0.,24.0,0.,24.0
1979-07-28 09:49:43.090 ,1,1,0.,24.0,0.,24.0,0.,24.0,0.,24.0
1979-07-28 09:50:07.090 ,1,0,0.,24.0,0.,24.0,0.,24.0,0.,24.0
1979-07-28 09:50:31.090 ,2,1,0.,24.0,0.,24.0,0.,24.0,0.,24.0
1979-07-28 09:50:55.090 ,2,0,0.,24.0,0.,24.0,0.,24.0,0.,24.0
1979-07-28 09:51:19.090 ,3,1,0.,24.0,0.,24.0,0.,24.0,0.,24.0
1979-07-28 09:51:43.090 ,3,0,0.,24.0,0.,24.0,0.,24.0,0.,24.0
1979-07-28 09:52:07.090 ,4,1,0.,24.0,0.,24.0,0.,24.0,0.,24.0
1979-07-28 09:52:31.090 ,4,0,0.,24.0,0.,24.0,0.,24.0,0.,24.0
1979-07-28 09:52:55.090 ,5,1,0.,24.0,0.,24.0,0.,24.0,0.,24.0
1979-07-28 09:53:19.090 ,5,0,0.,24.0,0.,24.0,0.,24.0,0.,24.0
1979-07-28 09:53:43.090 ,6,1,0.,24.0,0.,24.0,0.,24.0,0.,24.0
1979-07-28 09:54:07.090 ,6,0,0.,24.0,0.,24.0,0.,24.0,0.,24.0
1979-07-28 09:54:31.090 ,7,0,0.,24.0,0.,24.0,0.,24.0,0.,24.0
1979-07-28 09:54:55.090 ,7,0,0.,24.0,0.,24.0,0.,24.0,0.,24.0
1979-07-28 09:55:19.090 ,5,1,0.,24.0,0.,24.0,0.,24.0,0.,24.0
1979-07-28 09:55:43.090 ,1,1,0.,24.0,0.,24.0,0.,24.0,0.,24.0
1979-07-28 09:56:07.090 ,2,1,0.,24.0,0.,24.0,0.,24.0,0.,24.0
1979-07-28 09:56:31.090 ,6,1,0.,24.0,0.,24.0,0.,24.0,0.,24.0
1979-07-28 09:56:55.090 ,5,1,0.,24.0,0.,24.0,0.,24.0,0.,24.0
1979-07-28 09:57:19.090 ,1,1,0.,24.0,0.,24.0,0.,24.0,0.,24.0
1979-07-28 09:57:43.090 ,2,1,0.,24.0,0.,24.0,0.,24.0,0.,24.0
1979-07-28 09:58:07.090 ,6,1,0.,24.0,0.,24.0,0.,24.0,0.,24.0
1979-07-28 09:58:31.090 ,5,1,0.,24.0,0.,24.0,0.,24.0,0.,24.0
1979-07-28 09:58:55.090 ,1,1,0.,24.0,0.,24.0,0.,24.0,0.,24.0
1979-07-28 09:59:19.090 ,2,1,0.,24.0,0.,24.0,0.,24.0,0.,24.0
1979-07-28 09:59:43.090 ,6,1,0.,24.0,0.,24.0,0.,24.0,0.,24.0
1979-07-28 10:00:07.090 ,5,1,0.,24.0,0.,24.0,0.,24.0,0.,24.0
1979-07-28 10:00:31.090 ,1,1,0.,24.0,0.,24.0,0.,24.0,0.,24.0
1979-07-28 10:00:55.090 ,2,1,0.,24.0,0.,24.0,0.,24.0,0.,24.0
1979-07-28 10:01:19.090 ,6,1,0.,24.0,0.,24.0,0.,24.0,0.,24.0
1979-07-28 10:01:43.090 ,5,1,0.,24.0,0.,24.0,0.,24.0,0.,24.0
1979-07-28 10:02:07.090 ,0,0,0.,24.0,0.,24.0,0.,24.0,0.,24.0
1979-07-28 10:02:31.090 ,0,0,0.,24.0,0.,24.0,0.,24.0,0.,24.0
1979-07-28 10:02:55.090 ,6,1,0.,24.0,0.,24.0,0.,24.0,0.,24.0
1979-07-28 10:03:19.090 ,5,1,0.,24.0,0.,24.0,0.,24.0,0.,24.0
1979-07-28 10:03:43.090 ,1,1,0.,24.0,0.,24.0,0.,24.0,0.,24.0
1979-07-28 10:04:07.090 ,2,1,0.,24.0,0.,24.0,0.,24.0,0.,24.0
1979-07-28 10:04:31.090 ,6,1,0.,24.0,0.,24.0,0.,24.0,0.,24.0
1979-07-28 10:04:55.090 ,5,1,0.,24.0,0.,24.0,0.,24.0,0.,24.0
1979-07-28 10:05:19.090 ,1,1,0.,24.0,0.,24.0,0.,24.0,0.,24.0
1979-07-28 10:05:43.090 ,0,0,0.,24.0,0.,24.0,0.,24.0,0.,24.0
1979-07-28 10:06:07.090 ,0,0,0.,24.0,0.,24.0,0.,24.0,0.,24.0
1979-07-28 10:06:31.090 ,5,1,0.,24.0,0.,24.0,0.,24.0,0.,24.0
1979-07-28 10:06:55.090 ,5,0,0.,24.0,0.,24.0,0.,24.0,0.,24.0
1979-07-28 10:07:19.090 ,4,1,0.,24.0,0.,24.0,0.,24.0,0.,24.0
1979-07-28 10:07:43.090 ,4,0,0.,24.0,0.,24.0,0.,24.0,0.,24.0
1979-07-28 10:08:07.090 ,3,1,0.,24.0,0.,24.0,0.,24.0,0.,24.0
1979-07-28 10:08:31.090 ,3,0,0.,24.0,0.,24.0,0.,24.0,0.,24.0
1979-07-28 10:08:55.090 ,2,1,0.,24.0,0.,24.0,0.,24.0,0.,24.0
1979-07-28 10:09:19.090 ,2,0,0.,24.0,0.,24.0,0.,24.0,0.,24.0
1979-07-28 10:09:43.090 ,1,1,0.,24.0,0.,24.0,0.,24.0,0.,24.0
1979-07-28 10:10:07.090 ,1,0,0.,24.0,0.,24.0,0.,24.0,0.,24.0
1979-07-28 10:10:31.090 ,0,1,0.,24.0,0.,24.0,0.,24.0,0.,24.0
1979-07-28 10:10:55.090 ,0,0,0.,24.0,0.,24.0,0.,24.0,0.,24.0
1979-07-28 10:11:19.090 ,0,1,0.,24.0,0.,24.0,0.,24.0,0.,24.0
1979-07-28 10:11:43.090 ,0,0,0.,24.0,0.,24.0,0.,24.0,0.,24.0
1979-07-28 10:12:07.090 ,1,1,0.,24.0,0.,24.0,0.,24.0,0.,24.0
1979-07-28 10:12:31.090 ,1,0,0.,24.0,0.,24.0,0.,24.0,0.,24.0
1979-07-28 10:12:55.090 ,2,1,0.,24.0,0.,24.0,0.,24.0,0.,24.0
1979-07-28 10:13:19.090 ,2,0,0.,24.0,0.,24.0,0.,24.0,0.,24.0
1979-07-28 10:13:43.090 ,3,1,0.,24.0,0.,24.0,0.,24.0,0.,24.0
1979-07-28 10:14:07.090 ,3,0,0.,24.0,0.,24.0,0.,24.0,0.,24.0
1979-07-28 10:14:31.090 ,4,1,0.,24.0,0.,24.0,0.,24.0,0.,24.0
1979-07-28 10:14:55.090 ,4,0,0.,24.0,0.,24.0,0.,24.0,0.,24.0
1979-07-28 10:15:19.090 ,5,1,0.,24.0,0.,24.0,0.,24.0,0.,24.0
1979-07-28 10:15:43.090 ,5,0,0.,24.0,0.,24.0,0.,24.0,0.,24.0
1979-07-28 10:16:07.090 ,6,1,0.,24.0,0.,24.0,0.,24.0,0.,24.0
1979-07-28 10:16:31.090 ,6,0,0.,24.0,0.,24.0,0.,24.0,0.,24.0
1979-07-28 10:16:55.090 ,7,1,1.,24.0,0.,24.0,0.,24.0,0.,24.0
1979-07-28 10:17:19.090 ,7,0,0.,24.0,0.,24.0,0.,24.0,0.,24.0
1979-07-28 10:17:43.090 ,7,1,0.,24.0,0.,24.0,0.,24.0,0.,24.0
1979-07-28 10:18:07.090 ,7,0,0.,24.0,0.,24.0,0.,24.0,0.,24.0
1979-07-28 10:18:31.090 ,6,1,0.,24.0,0.,24.0,0.,24.0,0.,24.0
1979-07-28 10:18:55.090 ,6,0,0.,24.0,0.,24.0,0.,24.0,0.,24.0
1979-07-28 10:19:19.090 ,5,1,0.,24.0,0.,24.0,0.,24.0,0.,24.0
1979-07-28 10:19:43.090 ,5,0,0.,24.0,0.,24.0,0.,24.0,0.,24.0
1979-07-28 10:20:07.090 ,4,1,0.,24.0,0.,24.0,0.,24.0,0.,24.0
1979-07-28 10:20:31.090 ,4,0,0.,24.0,0.,24.0,0.,24.0,0.,24.0
1979-07-28 10:20:55.090 ,3,1,0.,24.0,0.,24.0,0.,24.0,0.,24.0
1979-07-28 10:21:19.090 ,3,0,0.,24.0,0.,24.0,0.,24.0,0.,24.0
1979-07-28 10:21:43.090 ,2,1,0.,24.0,0.,24.0,0.,24.0,0.,24.0
1979-07-28 10:22:07.090 ,2,0,0.,24.0,0.,24.0,0.,24.0,0.,24.0
1979-07-28 10:22:31.090 ,1,1,0.,24.0,0.,24.0,0.,24.0,0.,24.0
1979-07-28 10:22:55.090 ,1,0,0.,24.0,0.,24.0,0.,24.0,0.,24.0
1979-07-28 10:23:19.090 ,0,1,0.,24.0,0.,24.0,0.,24.0,0.,24.0
1979-07-28 10:23:43.090 ,0,0,0.,24.0,0.,24.0,0.,24.0,0.,24.0
1979-07-28 10:24:07.090 ,0,1,0.,24.0,0.,24.0,0.,24.0,0.,24.0
1979-07-28 10:24:31.090 ,0,0,0.,24.0,0.,24.0,0.,24.0,0.,24.0
1979-07-28 10:24:55.090 ,1,1,0.,24.0,0.,24.0,0.,24.0,0.,24.0
1979-07-28 10:25:19.090 ,1,0,0.,24.0,0.,24.0,0.,24.0,0.,24.0
1979-07-28 10:25:43.090 ,2,1,0.,24.0,0.,24.0,0.,24.0,0.,24.0
1979-07-28 10:26:07.090 ,2,0,0.,24.0,0.,24.0,0.,24.0,0.,24.0
1979-07-28 10:26:31.090 ,3,1,0.,24.0,0.,24.0,0.,24.0,0.,24.0
1979-07-28 10:26:55.090 ,3,0,0.,24.0,0.,24.0,0.,24.0,0.,24.0
1979-07-28 10:27:19.090 ,4,1,0.,24.0,0.,24.0,0.,24.0,0.,24.0
1979-07-28 10:27:43.090 ,4,0,0.,24.0,0.,24.0,0.,24.0,0.,24.0
1979-07-28 10:28:07.090 ,5,1,0.,24.0,0.,24.0,0.,24.0,0.,24.0
1979-07-28 10:28:31.090 ,5,0,0.,24.0,0.,24.0,0.,24.0,0.,24.0
1979-07-28 10:28:55.090 ,6,1,0.,24.0,0.,24.0,0.,24.0,0.,24.0
1979-07-28 10:29:19.090 ,0,0,0.,24.0,0.,24.0,0.,24.0,0.,24.0
1979-07-28 10:29:43.090 ,7,1,0.,24.0,0.,24.0,0.,24.0,0.,24.0
1979-07-28 10:30:07.090 ,7,0,0.,24.0,0.,24.0,0.,24.0,0.,24.0
1979-07-28 10:30:31.090 ,7,1,0.,24.0,0.,24.0,0.,24.0,0.,24.0
1979-07-28 10:30:55.090 ,7,0,0.,24.0,0.,24.0,0.,24.0,0.,24.0
1979-07-28 10:31:19.090 ,6,1,0.,24.0,0.,24.0,0.,24.0,0.,24.0
1979-07-28 10:31:43.090 ,6,0,0.,24.0,0.,24.0,0.,24.0,0.,24.0
1979-07-28 10:32:07.090 ,5,1,0.,24.0,0.,24.0,0.,24.0,0.,24.0
1979-07-28 10:32:31.090 ,5,0,0.,24.0,0.,24.0,0.,24.0,0.,24.0
1979-07-28 10:32:55.090 ,4,1,0.,24.0,0.,24.0,0.,24.0,0.,24.0
1979-07-28 10:33:19.090 ,4,0,0.,24.0,0.,24.0,0.,24.0,0.,24.0
1979-07-28 10:33:43.090 ,3,1,0.,24.0,0.,24.0,0.,24.0,0.,24.0
1979-07-28 10:34:07.090 ,3,0,0.,24.0,0.,24.0,0.,24.0,0.,24.0
1979-07-28 10:34:31.090 ,2,1,0.,24.0,0.,24.0,0.,24.0,0.,24.0
1979-07-28 10:34:55.090 ,2,0,0.,24.0,0.,24.0,0.,24.0,0.,24.0
1979-07-28 10:35:19.090 ,1,1,0.,24.0,0.,24.0,0.,24.0,0.,24.0
1979-07-28 10:35:43.090 ,1,0,0.,24.0,0.,24.0,0.,24.0,0.,24.0
1979-07-28 10:36:07.090 ,0,1,0.,24.0,0.,24.0,0.,24.0,0.,24.0
1979-07-28 10:36:31.090 ,0,0,0.,24.0,0.,24.0,0.,24.0,0.,24.0
1979-07-28 10:36:55.090 ,0,1,0.,24.0,0.,24.0,0.,24.0,0.,24.0
1979-07-28 10:37:19.090 ,0,0,0.,24.0,0.,24.0,0.,24.0,0.,24.0
1979-07-28 10:37:43.090 ,1,1,0.,24.0,0.,24.0,0.,24.0,0.,24.0
1979-07-28 10:38:07.090 ,1,0,0.,24.0,0.,24.0,0.,24.0,0.,24.0
1979-07-28 10:38:31.090 ,0,0,0.,24.0,0.,24.0,0.,24.0,0.,24.0
1979-07-28 10:38:55.090 ,0,0,,0,,0,,0,,0
1979-07-28 10:39:19.090 ,3,1,0.,24.0,0.,24.0,0.,24.0,0.,24.0
1979-07-28 10:39:43.090 ,3,0,0.,24.0,0.,24.0,0.,24.0,0.,24.0
1979-07-28 10:40:07.090 ,4,1,0.,24.0,0.,24.0,0.,24.0,0.,24.0
1979-07-28 10:40:31.090 ,4,0,0.,24.0,0.,24.0,0.,24.0,0.,24.0
1979-07-28 10:40:55.090 ,5,1,0.,24.0,0.,24.0,0.,24.0,0.,24.0
1979-07-28 10:41:19.090 ,5,0,0.,24.0,0.,24.0,0.,24.0,0.,24.0
1979-07-28 10:41:43.090 ,6,1,0.,24.0,0.,24.0,0.,24.0,0.,24.0
1979-07-28 10:42:07.090 ,6,0,0.,24.0,0.,24.0,0.,24.0,0.,24.0
1979-07-28 10:42:31.090 ,7,0,0.,24.0,0.,24.0,0.,24.0,0.,24.0
1979-07-28 10:42:55.090 ,7,0,0.,24.0,0.,24.0,0.,24.0,0.,24.0
1979-07-28 10:43:19.090 ,5,1,0.,24.0,0.,24.0,0.,24.0,0.,24.0
1979-07-28 10:43:43.090 ,1,1,0.,24.0,0.,24.0,0.,24.0,0.,24.0
1979-07-28 10:44:07.090 ,2,1,0.,24.0,0.,24.0,0.,24.0,0.,24.0
1979-07-28 10:44:31.090 ,6,1,0.,24.0,0.,24.0,0.,24.0,0.,24.0
1979-07-28 10:44:55.090 ,5,1,0.,24.0,0.,24.0,0.,24.0,0.,24.0
1979-07-28 10:45:19.090 ,1,1,0.,24.0,0.,24.0,0.,24.0,0.,24.0
1979-07-28 10:45:43.090 ,2,1,0.,24.0,0.,24.0,0.,24.0,0.,24.0
1979-07-28 10:46:07.090 ,6,1,0.,24.0,0.,24.0,0.,24.0,0.,24.0
1979-07-28 10:46:31.090 ,5,1,0.,24.0,0.,24.0,0.,24.0,0.,24.0
1979-07-28 10:46:55.090 ,1,1,0.,24.0,0.,24.0,0.,24.0,0.,24.0
1979-07-28 10:47:19.090 ,2,1,0.,24.0,0.,24.0,0.,24.0,0.,24.0
1979-07-28 10:47:43.090 ,6,1,0.,24.0,0.,24.0,0.,24.0,0.,24.0
1979-07-28 10:48:07.090 ,5,1,1.,24.0,0.,24.0,0.,24.0,0.,24.0
1979-07-28 10:48:31.090 ,1,1,0.,24.0,0.,24.0,0.,24.0,0.,24.0
1979-07-28 10:48:55.090 ,2,1,0.,24.0,0.,24.0,0.,24.0,0.,24.0
1979-07-28 10:49:19.090 ,6,1,0.,24.0,0.,24.0,0.,24.0,0.,24.0
1979-07-28 10:49:43.090 ,5,1,0.,24.0,0.,24.0,0.,24.0,0.,24.0
1979-07-28 10:50:07.090 ,1,1,0.,24.0,0.,24.0,0.,24.0,0.,24.0
1979-07-28 10:50:31.090 ,2,1,0.,24.0,0.,24.0,0.,24.0,0.,24.0
1979-07-28 10:50:55.090 ,6,1,0.,24.0,0.,24.0,0.,24.0,0.,24.0
1979-07-28 10:51:19.090 ,5,1,0.,24.0,0.,24.0,0.,24.0,0.,24.0
1979-07-28 10:51:43.090 ,1,1,0.,24.0,0.,24.0,0.,24.0,0.,24.0
1979-07-28 10:52:07.090 ,2,1,0.,24.0,0.,24.0,0.,24.0,0.,24.0
1979-07-28 10:52:31.090 ,6,1,0.,24.0,0.,24.0,0.,24.0,0.,24.0
1979-07-28 10:52:55.090 ,5,1,0.,24.0,0.,24.0,0.,24.0,0.,24.0
1979-07-28 10:53:19.090 ,1,1,0.,24.0,0.,24.0,0.,24.0,0.,24.0
1979-07-28 10:53:43.090 ,0,0,0.,24.0,0.,24.0,0.,24.0,0.,24.0
1979-07-28 10:54:07.090 ,0,0,0.,24.0,0.,24.0,0.,24.0,0.,24.0
1979-07-28 10:54:31.090 ,5,1,0.,24.0,0.,24.0,0.,24.0,0.,24.0
1979-07-28 10:54:55.090 ,5,0,0.,24.0,0.,24.0,0.,24.0,0.,24.0
1979-07-28 10:55:19.090 ,4,1,0.,24.0,0.,24.0,0.,24.0,0.,24.0
1979-07-28 10:55:43.090 ,4,0,0.,24.0,0.,24.0,0.,24.0,0.,24.0
1979-07-28 10:56:07.090 ,3,1,0.,24.0,0.,24.0,0.,24.0,0.,24.0
1979-07-28 10:56:31.090 ,3,0,0.,24.0,0.,24.0,0.,24.0,0.,24.0
1979-07-28 10:56:55.090 ,2,1,0.,24.0,0.,24.0,0.,24.0,0.,24.0
1979-07-28 10:57:19.090 ,2,0,0.,24.0,0.,24.0,0.,24.0,0.,24.0
1979-07-28 10:57:43.090 ,1,1,0.,24.0,0.,24.0,0.,24.0,0.,24.0
1979-07-28 10:58:07.090 ,1,0,0.,24.0,0.,24.0,0.,24.0,0.,24.0
1979-07-28 10:58:31.090 ,0,1,0.,24.0,0.,24.0,0.,24.0,0.,24.0
1979-07-28 10:58:55.090 ,0,0,1.,24.0,0.,24.0,0.,24.0,0.,24.0
1979-07-28 10:59:19.090 ,0,1,0.,24.0,0.,24.0,0.,24.0,0.,24.0
1979-07-28 10:59:43.090 ,0,0,0.,24.0,0.,24.0,0.,24.0,0.,24.0
1979-07-28 11:00:07.090 ,1,1,0.,24.0,0.,24.0,0.,24.0,0.,24.0
1979-07-28 11:00:31.090 ,1,0,0.,24.0,0.,24.0,0.,24.0,0.,24.0
1979-07-28 11:00:55.090 ,2,1,0.,24.0,0.,24.0,0.,24.0,0.,24.0
1979-07-28 11:01:19.090 ,2,0,0.,24.0,0.,24.0,0.,24.0,0.,24.0
1979-07-28 11:01:43.090 ,3,1,0.,24.0,0.,24.0,0.,24.0,0.,24.0
1979-07-28 11:02:07.090 ,3,0,0.,24.0,0.,24.0,0.,24.0,0.,24.0
1979-07-28 11:02:31.090 ,4,1,0.,24.0,0.,24.0,0.,24.0,0.,24.0
1979-07-28 11:02:55.090 ,4,0,0.,24.0,0.,24.0,0.,24.0,0.,24.0
1979-07-28 11:03:19.090 ,5,1,0.,24.0,0.,24.0,0.,24.0,0.,24.0
1979-07-28 11:03:43.090 ,5,0,0.,24.0,0.,24.0,0.,24.0,0.,24.0
1979-07-28 11:04:07.090 ,6,1,0.,24.0,0.,24.0,0.,24.0,0.,24.0
1979-07-28 11:04:31.090 ,6,0,0.,24.0,0.,24.0,0.,24.0,0.,24.0
1979-07-28 11:04:55.090 ,7,1,0.,24.0,0.,24.0,0.,24.0,0.,24.0
1979-07-28 11:05:19.090 ,7,0,0.,24.0,0.,24.0,0.,24.0,0.,24.0
1979-07-28 11:05:43.090 ,7,1,0.,24.0,0.,24.0,0.,24.0,0.,24.0
1979-07-28 11:06:07.090 ,7,0,0.,24.0,0.,24.0,0.,24.0,0.,24.0
1979-07-28 11:06:31.090 ,6,1,0.,24.0,0.,24.0,0.,24.0,0.,24.0
1979-07-28 11:06:55.090 ,6,0,0.,24.0,0.,24.0,0.,24.0,0.,24.0
1979-07-28 11:07:19.090 ,5,1,0.,24.0,0.,24.0,0.,24.0,0.,24.0
1979-07-28 11:07:43.090 ,5,0,0.,24.0,0.,24.0,0.,24.0,0.,24.0
1979-07-28 11:08:07.090 ,4,1,0.,24.0,0.,24.0,0.,24.0,0.,24.0
1979-07-28 11:08:31.090 ,4,0,0.,24.0,0.,24.0,0.,24.0,0.,24.0
1979-07-28 11:08:55.090 ,3,1,0.,24.0,0.,24.0,0.,24.0,0.,24.0
1979-07-28 11:09:19.090 ,3,0,0.,24.0,0.,24.0,0.,24.0,0.,24.0
1979-07-28 11:09:43.090 ,2,1,0.,24.0,0.,24.0,0.,24.0,0.,24.0
1979-07-28 11:10:07.090 ,2,0,0.,24.0,0.,24.0,0.,24.0,0.,24.0
1979-07-28 11:10:31.090 ,1,1,0.,24.0,0.,24.0,0.,24.0,0.,24.0
1979-07-28 11:10:55.090 ,1,0,0.,24.0,0.,24.0,0.,24.0,0.,24.0
1979-07-28 11:11:19.090 ,0,1,0.,24.0,0.,24.0,0.,24.0,0.,24.0
1979-07-28 11:11:43.090 ,0,0,0.,24.0,0.,24.0,0.,24.0,0.,24.0
1979-07-28 11:12:07.090 ,0,1,0.,24.0,0.,24.0,0.,24.0,0.,24.0
1979-07-28 11:12:31.090 ,0,0,0.,24.0,0.,24.0,0.,24.0,0.,24.0
1979-07-28 11:12:55.090 ,1,1,0.,24.0,0.,24.0,0.,24.0,0.,24.0
1979-07-28 11:13:19.090 ,1,0,0.,24.0,0.,24.0,0.,24.0,0.,24.0
1979-07-28 11:13:43.090 ,2,1,0.,24.0,0.,24.0,0.,24.0,0.,24.0
1979-07-28 11:14:07.090 ,2,0,0.,24.0,0.,24.0,0.,24.0,0.,24.0
1979-07-28 11:14:31.090 ,3,1,0.,24.0,0.,24.0,0.,24.0,0.,24.0
1979-07-28 11:14:55.090 ,3,0,0.,24.0,0.,24.0,0.,24.0,0.,24.0
1979-07-28 11:15:19.090 ,4,1,0.,24.0,0.,24.0,0.,24.0,0.,24.0
1979-07-28 11:15:43.090 ,4,0,0.,24.0,0.,24.0,0.,24.0,0.,24.0
1979-07-28 11:16:07.090 ,5,1,0.,24.0,0.,24.0,0.,24.0,0.,24.0
1979-07-28 11:16:31.090 ,5,0,0.,24.0,0.,24.0,0.,24.0,0.,24.0
1979-07-28 11:16:55.090 ,6,1,0.,24.0,0.,24.0,0.,24.0,0.,24.0
1979-07-28 11:17:19.090 ,6,0,0.,24.0,0.,24.0,0.,24.0,0.,24.0
1979-07-28 11:17:43.090 ,7,1,0.,24.0,0.,24.0,0.,24.0,0.,24.0
1979-07-28 11:18:07.090 ,7,0,0.,24.0,0.,24.0,0.,24.0,0.,24.0
1979-07-28 11:18:31.090 ,7,1,0.,24.0,0.,24.0,0.,24.0,0.,24.0
1979-07-28 11:18:55.090 ,7,0,0.,24.0,0.,24.0,0.,24.0,0.,24.0
1979-07-28 11:19:19.090 ,6,1,0.,24.0,0.,24.0,0.,24.0,0.,24.0
1979-07-28 11:19:43.090 ,6,0,0.,24.0,0.,24.0,0.,24.0,0.,24.0
1979-07-28 11:20:07.090 ,5,1,0.,24.0,0.,24.0,0.,24.0,0.,24.0
1979-07-28 11:20:31.090 ,5,0,0.,24.0,0.,24.0,0.,24.0,0.,24.0
1979-07-28 11:20:55.090 ,4,1,0.,24.0,0.,24.0,0.,24.0,0.,24.0
1979-07-28 11:21:19.090 ,4,0,0.,24.0,0.,24.0,0.,24.0,0.,24.0
1979-07-28 11:21:43.090 ,3,1,0.,24.0,0.,24.0,0.,24.0,0.,24.0
1979-07-28 11:22:07.090 ,3,0,0.,24.0,0.,24.0,0.,24.0,0.,24.0
1979-07-28 11:22:31.090 ,2,1,0.,24.0,0.,24.0,0.,24.0,0.,24.0
1979-07-28 11:22:55.090 ,2,0,0.,24.0,0.,24.0,0.,24.0,0.,24.0
1979-07-28 11:23:19.090 ,1,1,0.,24.0,0.,24.0,0.,24.0,0.,24.0
1979-07-28 11:23:43.090 ,1,0,0.,24.0,0.,24.0,0.,24.0,0.,24.0
1979-07-28 11:24:07.090 ,0,1,0.,24.0,0.,24.0,0.,24.0,0.,24.0
1979-07-28 11:24:31.090 ,0,0,0.,24.0,0.,24.0,0.,24.0,0.,24.0
1979-07-28 11:24:55.090 ,0,1,0.,24.0,0.,24.0,0.,24.0,0.,24.0
1979-07-28 11:25:19.090 ,0,0,0.,24.0,0.,24.0,0.,24.0,0.,24.0
1979-07-28 11:25:43.090 ,1,1,0.,24.0,0.,24.0,0.,24.0,0.,24.0
1979-07-28 11:26:07.090 ,1,0,0.,24.0,0.,24.0,0.,24.0,0.,24.0
1979-07-28 11:26:31.090 ,2,1,0.,24.0,0.,24.0,0.,24.0,0.,24.0
1979-07-28 11:26:55.090 ,2,0,0.,24.0,0.,24.0,0.,24.0,0.,24.0
1979-07-28 11:27:19.090 ,3,1,0.,24.0,0.,24.0,0.,24.0,0.,24.0
1979-07-28 11:27:43.090 ,3,0,0.,24.0,0.,24.0,0.,24.0,0.,24.0
1979-07-28 11:28:07.090 ,4,1,0.,24.0,0.,24.0,0.,24.0,0.,24.0
1979-07-28 11:28:31.090 ,4,0,0.,24.0,0.,24.0,0.,24.0,0.,24.0
1979-07-28 11:28:55.090 ,5,1,0.,24.0,0.,24.0,0.,24.0,0.,24.0
1979-07-28 11:29:19.090 ,5,0,0.,24.0,0.,24.0,0.,24.0,0.,24.0
1979-07-28 11:29:43.090 ,6,1,0.,24.0,0.,24.0,0.,24.0,0.,24.0
1979-07-28 11:30:07.090 ,6,0,0.,24.0,0.,24.0,0.,24.0,0.,24.0
1979-07-28 11:30:31.090 ,7,0,0.,24.0,0.,24.0,0.,24.0,0.,24.0
1979-07-28 11:30:55.090 ,7,0,0.,24.0,0.,24.0,0.,24.0,0.,24.0
1979-07-28 11:31:19.090 ,3,1,,0,,0,,0,,0
1979-07-28 11:31:43.090 ,1,1,0.,24.0,0.,24.0,0.,24.0,0.,24.0
1979-07-28 11:32:07.090 ,2,1,0.,24.0,0.,24.0,0.,24.0,0.,24.0
1979-07-28 11:32:31.090 ,6,1,0.,24.0,0.,24.0,0.,24.0,0.,24.0
1979-07-28 11:32:55.090 ,5,1,0.,24.0,0.,24.0,0.,24.0,0.,24.0
1979-07-28 11:33:19.090 ,1,1,0.,24.0,0.,24.0,0.,24.0,0.,24.0
1979-07-28 11:33:43.090 ,2,1,0.,24.0,0.,24.0,0.,24.0,0.,24.0
1979-07-28 11:34:07.090 ,6,1,0.,24.0,0.,24.0,0.,24.0,0.,24.0
1979-07-28 11:34:31.090 ,5,1,0.,24.0,0.,24.0,0.,24.0,0.,24.0